This is the latest recevied weather packets stored in our database for station/object IV3CGM-13. If no packets are shown the sender has not sent any weather packets the latest 10 day(s).
| Time | Temp. | Humidity | Pressure | Rain* | Wind** | Luminosity | Snow |
|---|---|---|---|---|---|---|---|
| 1777255940 | 12.78° C | 70% | 1018.6 hPa | 0 mm | - | 0 W/m² | - |
| 1777255252 | 12.78° C | 68% | 1018.7 hPa | 0 mm | - | 0 W/m² | - |
| 1777254565 | 12.78° C | 68% | 1018.8 hPa | 0 mm | - | 0 W/m² | - |
| 1777253877 | 13.33° C | 68% | 1018.8 hPa | 0 mm | - | 0 W/m² | - |
| 1777253189 | 13.33° C | 68% | 1018.8 hPa | 0 mm | - | 0 W/m² | - |
| 1777252467 | 13.33° C | 70% | 1018.8 hPa | 0 mm | - | 0 W/m² | - |
| 1777251728 | 13.89° C | 66% | 1018.7 hPa | 0 mm | - | 0 W/m² | - |
| 1777251040 | 13.33° C | 69% | 1018.6 hPa | 0 mm | - | 0 W/m² | - |
| 1777250352 | 13.33° C | 72% | 1018.6 hPa | 0 mm | - | 0 W/m² | - |
| 1777249665 | 13.33° C | 70% | 1018.7 hPa | 0 mm | - | 0 W/m² | - |
| 1777248928 | 13.89° C | 69% | 1018.7 hPa | 0 mm | - | 0 W/m² | - |
| 1777248227 | 13.89° C | 65% | 1018.8 hPa | 0 mm | - | 0 W/m² | - |
| 1777247540 | 14.44° C | 62% | 1018.7 hPa | 0 mm | - | 0 W/m² | - |
| 1777246852 | 14.44° C | 65% | 1018.8 hPa | 0 mm | - | 0 W/m² | - |
| 1777246165 | 14.44° C | 63% | 1018.9 hPa | 0 mm | - | 0 W/m² | - |
| 1777245428 | 15° C | 66% | 1018.8 hPa | 0 mm | - | 0 W/m² | - |
| 1777244727 | 14.44° C | 60% | 1018.9 hPa | 0 mm | - | 0 W/m² | - |
| 1777244040 | 14.44° C | 68% | 1018.8 hPa | 0 mm | - | 0 W/m² | - |
| 1777243352 | 14.44° C | 65% | 1018.8 hPa | 0 mm | - | 0 W/m² | - |
| 1777242665 | 15° C | 66% | 1018.7 hPa | 0 mm | - | 0 W/m² | - |
| 1777241928 | 15.56° C | 65% | 1018.5 hPa | 0 mm | - | 0 W/m² | - |
| 1777241227 | 15° C | 65% | 1018.4 hPa | 0 mm | - | 0 W/m² | - |
| 1777240539 | 15.56° C | 63% | 1018.5 hPa | 0 mm | - | 0 W/m² | - |
| 1777239851 | 15° C | 61% | 1018.5 hPa | 0 mm | - | 0 W/m² | - |
| 1777239164 | 15.56° C | 63% | 1018.5 hPa | 0 mm | - | 0 W/m² | - |
* Rain latest hour (hover to see other rain measurements)
** Current wind speed in m/s (hover to see current wind gust speed)